TimeCST,TemperatureF,Dew PointF,Humidity,Sea Level PressureIn,VisibilityMPH,Wind Direction,Wind SpeedMPH,Gust SpeedMPH,PrecipitationIn,Events,Conditions,WindDirDegrees,DateUTC
12:15 AM,33.8,26.6,75,29.98,8.0,SSW,6.9,-,N/A,,Overcast,200,2012-12-28 06:15:00
12:36 AM,33.8,26.6,75,29.98,8.0,South,6.9,-,N/A,,Overcast,190,2012-12-28 06:36:00
1:15 AM,33.8,26.6,75,29.97,8.0,South,4.6,-,N/A,,Overcast,170,2012-12-28 07:15:00
1:35 AM,33.8,26.6,75,29.98,8.0,South,3.5,-,N/A,,Overcast,180,2012-12-28 07:35:00
1:55 AM,33.8,26.6,75,29.98,8.0,Calm,Calm,-,N/A,,Overcast,0,2012-12-28 07:55:00
2:15 AM,33.8,26.6,75,29.98,8.0,SSW,3.5,-,N/A,,Overcast,200,2012-12-28 08:15:00
2:35 AM,33.8,26.6,75,29.99,8.0,Calm,Calm,-,N/A,,Overcast,0,2012-12-28 08:35:00
3:15 AM,33.8,26.6,75,29.99,8.0,Calm,Calm,-,N/A,,Overcast,0,2012-12-28 09:15:00
3:55 AM,33.8,26.6,75,29.97,8.0,Calm,Calm,-,N/A,,Overcast,0,2012-12-28 09:55:00
4:15 AM,33.8,26.6,75,29.97,8.0,Calm,Calm,-,N/A,,Overcast,0,2012-12-28 10:15:00
4:35 AM,33.8,26.6,75,29.98,8.0,South,3.5,-,N/A,,Overcast,180,2012-12-28 10:35:00
4:55 AM,33.8,26.6,75,29.97,9.0,SE,3.5,-,N/A,,Overcast,130,2012-12-28 10:55:00
5:35 AM,32.0,26.6,80,29.96,8.0,Calm,Calm,-,N/A,,Overcast,0,2012-12-28 11:35:00
6:35 AM,33.8,26.6,75,29.96,7.0,Calm,Calm,-,N/A,,Overcast,0,2012-12-28 12:35:00
7:16 AM,33.8,26.6,75,29.95,7.0,North,3.5,-,N/A,,Overcast,10,2012-12-28 13:16:00
7:55 AM,33.8,26.6,75,29.95,4.0,NNW,6.9,-,N/A,,Overcast,340,2012-12-28 13:55:00
8:15 AM,33.8,26.6,75,29.97,3.0,North,4.6,-,N/A,,Overcast,350,2012-12-28 14:15:00
8:55 AM,33.8,26.6,75,29.97,3.0,NNE,4.6,-,N/A,,Overcast,30,2012-12-28 14:55:00
9:15 AM,33.8,26.6,75,29.96,2.5,NNE,5.8,-,N/A,,Overcast,20,2012-12-28 15:15:00
9:35 AM,33.8,26.6,75,29.96,1.8,North,6.9,-,N/A,,Overcast,360,2012-12-28 15:35:00
9:55 AM,33.8,26.6,75,29.96,2.0,North,5.8,-,N/A,,Overcast,10,2012-12-28 15:55:00
10:35 AM,33.8,26.6,75,29.98,2.0,NNW,3.5,-,N/A,,Overcast,340,2012-12-28 16:35:00
10:55 AM,33.8,28.4,81,29.98,2.0,Calm,Calm,-,N/A,,Overcast,0,2012-12-28 16:55:00
11:15 AM,33.8,28.4,81,29.97,2.5,Calm,Calm,-,N/A,,Overcast,0,2012-12-28 17:15:00
11:35 AM,33.8,28.4,81,29.97,3.0,Calm,Calm,-,N/A,,Overcast,0,2012-12-28 17:35:00
11:55 AM,35.6,28.4,75,29.96,3.0,West,5.8,-,N/A,,Overcast,280,2012-12-28 17:55:00
12:15 PM,35.6,26.6,70,29.96,4.0,WNW,6.9,-,N/A,,Overcast,300,2012-12-28 18:15:00
12:35 PM,35.6,26.6,70,29.95,7.0,WNW,8.1,-,N/A,,Overcast,290,2012-12-28 18:35:00
12:55 PM,35.6,24.8,65,29.94,9.0,NW,9.2,-,N/A,,Overcast,310,2012-12-28 18:55:00
1:35 PM,35.6,24.8,65,29.93,10.0,NW,11.5,-,N/A,,Overcast,320,2012-12-28 19:35:00
1:55 PM,35.6,23.0,60,29.93,10.0,NNW,10.4,-,N/A,,Overcast,330,2012-12-28 19:55:00
2:35 PM,32.0,24.8,75,29.93,0.8,NW,9.2,-,N/A,,Overcast,320,2012-12-28 20:35:00
2:55 PM,32.0,26.6,80,29.93,0.8,NW,5.8,-,N/A,,Overcast,310,2012-12-28 20:55:00
3:15 PM,32.0,26.6,80,29.94,0.8,WNW,8.1,-,N/A,,Overcast,300,2012-12-28 21:15:00
3:35 PM,32.0,26.6,80,29.95,1.2,WNW,8.1,-,N/A,,Overcast,300,2012-12-28 21:35:00
3:55 PM,32.0,26.6,80,29.95,1.5,NW,10.4,-,N/A,,Overcast,320,2012-12-28 21:55:00
4:36 PM,32.0,26.6,80,29.95,5.0,NW,10.4,-,N/A,,Overcast,320,2012-12-28 22:36:00
4:55 PM,32.0,26.6,80,29.96,5.0,NW,9.2,-,N/A,,Overcast,310,2012-12-28 22:55:00
5:15 PM,32.0,24.8,75,29.97,6.0,NW,9.2,-,N/A,,Overcast,310,2012-12-28 23:15:00
5:35 PM,32.0,24.8,75,29.97,8.0,NW,8.1,-,N/A,,Overcast,310,2012-12-28 23:35:00
5:55 PM,32.0,24.8,75,29.98,8.0,NW,10.4,-,N/A,,Overcast,310,2012-12-28 23:55:00
6:35 PM,30.2,23.0,75,29.99,10.0,NW,11.5,-,N/A,,Overcast,310,2012-12-29 00:35:00
6:55 PM,30.2,21.2,69,30.00,10.0,NW,13.8,-,N/A,,Overcast,310,2012-12-29 00:55:00
7:15 PM,30.2,21.2,69,30.01,10.0,NW,12.7,-,N/A,,Overcast,320,2012-12-29 01:15:00
7:35 PM,30.2,21.2,69,30.01,10.0,WNW,10.4,-,N/A,,Overcast,300,2012-12-29 01:35:00
7:55 PM,30.2,21.2,69,30.02,10.0,WNW,10.4,-,N/A,,Overcast,300,2012-12-29 01:55:00
8:15 PM,30.2,21.2,69,30.03,10.0,NW,13.8,-,N/A,,Overcast,320,2012-12-29 02:15:00
8:35 PM,30.2,21.2,69,30.03,10.0,WNW,16.1,-,N/A,,Overcast,300,2012-12-29 02:35:00
8:55 PM,28.4,19.4,69,30.04,10.0,NW,13.8,-,N/A,,Overcast,310,2012-12-29 02:55:00
9:15 PM,28.4,19.4,69,30.04,10.0,NW,12.7,-,N/A,,Overcast,310,2012-12-29 03:15:00
9:35 PM,28.4,17.6,64,30.04,10.0,WNW,15.0,-,N/A,,Overcast,300,2012-12-29 03:35:00
9:55 PM,26.6,15.8,64,30.06,10.0,NW,16.1,-,N/A,,Mostly Cloudy,320,2012-12-29 03:55:00
10:15 PM,26.6,15.8,64,30.07,10.0,NW,10.4,17.3,N/A,,Partly Cloudy,320,2012-12-29 04:15:00
10:55 PM,23.0,12.2,63,30.09,10.0,WNW,8.1,-,N/A,,Clear,300,2012-12-29 04:55:00
11:15 PM,24.8,14.0,64,30.09,10.0,NW,10.4,-,N/A,,Partly Cloudy,310,2012-12-29 05:15:00
11:35 PM,23.0,12.2,63,30.09,10.0,NW,12.7,-,N/A,,Clear,310,2012-12-29 05:35:00
11:55 PM,23.0,12.2,63,30.10,10.0,NW,10.4,-,N/A,,Clear,310,2012-12-29 05:55:00